Weather History for Tanana, AK

Change the Weather History Date:

Tuesday, November 6, 2012

  Actual Average Record
Temperature  
Mean Temperature -8 °F -  
Max Temperature 1 °F 13 °F 32 °F (1997)
Min Temperature -17 °F -1 °F -35 °F (1956)
Degree Days  
Heating Degree Days 73    
Moisture  
Dew Point -17 °F    
Average Humidity 76    
Maximum Humidity 80    
Minimum Humidity 69    
Precipitation  
Precipitation 0.00 in - - ()
Snow  
Snow 0.00 in - - ()
Snow Depth 4.00 in    
Sea Level Pressure  
Sea Level Pressure 30.46 in    
Wind  
Wind Speed 0 mph (WSW)    
Max Wind Speed 5 mph    
Max Gust Speed -    
Visibility 10 miles    
Events      
Averages and records for this station are not official NWS values.
T = Trace of Precipitation, MM = Missing Value Source: NWS Daily Summary

Daily Weather History Graph

Daily Weather History Graph

Search for Another Location

Airport:

Trip Planner

Search our weather history database for the weather conditions in past years. The results will help you decide how hot, cold, wet, or windy it might be!

Date:

Astronomy

Nov. 06, 2012 Rise Set
Actual Time 9:17 AM AKST 4:25 PM AKST
Civil Twilight 8:19 AM AKST 5:23 PM AKST
Nautical Twilight 7:18 AM AKST 6:24 PM AKST
Astronomical Twilight 6:20 AM AKST 7:22 PM AKST
Moon 11:51 PM AKST (11/6) 2:48 PM AKST (11/6)
Length of Visible Light 9h 04m
Length of Day
7h 07m
Waning Gibbous, 51% of the Moon is Illuminated
Nov 6
Waning Gibbous
Nov 6
Last Quarter
Nov 13
New
Nov 20
First Quarter
Nov 28
Full

Hourly Weather History & Observations

Time (AKST) Temp. Windchill Dew Point Humidity Pressure Visibility Wind Dir Wind Speed Gust Speed Precip Events Conditions
12:52 AM -13.0 °F - -18.9 °F 75% 30.35 in 10.0 mi Calm Calm - N/A   Clear
1:52 AM -13.0 °F - -18.0 °F 78% 30.37 in 10.0 mi Calm Calm - N/A   Clear
2:52 AM -14.1 °F - -20.0 °F 75% 30.38 in 10.0 mi Calm Calm - N/A   Clear
3:52 AM -15.0 °F - -20.9 °F 75% 30.39 in 10.0 mi Calm Calm - N/A   Clear
4:52 AM -15.0 °F - -20.0 °F 78% 30.40 in 10.0 mi Calm Calm - N/A   Clear
5:52 AM -15.0 °F - -20.9 °F 75% 30.42 in 10.0 mi Calm Calm - N/A   Clear
6:52 AM -15.0 °F - -20.0 °F 78% 30.43 in 10.0 mi Calm Calm - N/A   Clear
7:52 AM -17.0 °F - -22.0 °F 78% 30.43 in 10.0 mi Calm Calm - N/A   Clear
8:52 AM -16.1 °F - -22.0 °F 74% 30.45 in 10.0 mi Calm Calm - N/A   Partly Cloudy
9:52 AM -17.0 °F - -22.0 °F 78% 30.46 in 10.0 mi Calm Calm - N/A   Partly Cloudy
10:52 AM -9.9 °F - -16.1 °F 74% 30.47 in 10.0 mi Calm Calm - N/A   Clear
11:52 AM -5.1 °F - -11.9 °F 72% 30.48 in 10.0 mi Calm Calm - N/A   Clear
12:52 PM -2.9 °F - -8.0 °F 79% 30.48 in 10.0 mi Calm Calm - N/A   Clear
1:52 PM -0.0 °F -9.9 °F -8.0 °F 69% 30.48 in 10.0 mi SW 4.6 mph - N/A   Clear
2:52 PM 1.9 °F -5.6 °F -6.0 °F 69% 30.48 in 10.0 mi West 3.5 mph - N/A   Clear
3:52 PM 1.0 °F - -6.0 °F 72% 30.48 in 10.0 mi Calm Calm - N/A   Clear
4:52 PM -5.1 °F - -9.9 °F 80% 30.49 in 10.0 mi Calm Calm - N/A   Clear
5:52 PM -9.9 °F - -15.0 °F 78% 30.50 in 10.0 mi Calm Calm - N/A   Clear
6:52 PM -11.9 °F - -17.0 °F 78% 30.51 in 10.0 mi Calm Calm - N/A   Clear
7:52 PM -11.9 °F - -17.0 °F 78% 30.52 in 10.0 mi Calm Calm - N/A   Clear
8:52 PM -13.0 °F - -18.9 °F 75% 30.54 in 10.0 mi Calm Calm - N/A   Clear
9:52 PM -14.1 °F - -18.9 °F 79% 30.54 in 10.0 mi Calm Calm - N/A   Clear
10:52 PM -14.1 °F - -20.0 °F 75% 30.55 in 10.0 mi Calm Calm - N/A   Clear
11:52 PM -15.0 °F - -20.9 °F 75% 30.56 in 10.0 mi Calm Calm - N/A   Clear